This demonstration page uses our WeatherBlox Daily Observations layout. Learn more.

Hourly Observations for February 27, 2018

Temp ( °F °C ) Dew Point ( °F °C ) Humidity (%) Winds ( mph kmh ) Pressure ( in mb ) Visibility ( mi km ) Precip ( " mm )
12:15 am 00:15 Clear 34 1 20 -6.7 57 57 SSE 8 13 29.97 1015 10 16.0934 0 0
12:35 am 00:35 Clear 35 1.5 20 -6.7 55 55 SSE 7 11 29.97 1015 10 16.0934 0 0
12:55 am 00:55 Clear 35 1.5 20 -6.5 56 56 SSE 8 13 29.97 1015 10 16.0934 0 0
1:15 am 01:15 Clear 36 2.3 20 -6.5 53 53 SSE 8 13 29.94 1014 10 16.0934 0 0
1:35 am 01:35 Clear 36 2 20 -6.6 53 53 SSE 8 13 29.91 1013 10 16.0934 0 0
1:55 am 01:55 Clear 34 1.1 20 -6.6 57 57 SSE 8 13 29.94 1014 10 16.0934 0 0
2:15 am 02:15 Clear 36 2 21 -6.3 55 55 S 10 17 29.91 1013 10 16.0934 0 0
2:35 am 02:35 Clear 35 1.5 20 -6.5 56 56 S 8 13 29.91 1013 10 16.0934 0 0
2:55 am 02:55 Clear 33 0.7 20 -6.4 59 59 S 9 15 29.91 1013 10 16.0934 0 0
3:15 am 03:15 Clear 33 0.7 20 -6.4 59 59 S 10 17 29.91 1013 10 16.0934 0 0
3:35 am 03:35 Clear 36 2.3 20 -6.5 53 53 S 14 22 29.88 1012 10 16.0934 0 0
3:55 am 03:55 Clear 36 2.4 20 -6.5 52 52 S 12 19 29.85 1011 10 16.0934 0 0
4:15 am 04:15 Clear 36 2.2 19 -7 51 51 S 6 9 29.88 1012 10 16.0934 0 0
4:35 am 04:35 Clear 33 0.6 19 -7 57 57 S 8 13 29.91 1013 10 16.0934 0 0
4:55 am 04:55 Clear 33 0.3 19 -7.1 58 58 SSW 6 9 29.91 1013 10 16.0934 0 0
5:15 am 05:15 Clear 33 0.8 19 -7.2 55 55 S 10 17 29.85 1011 10 16.0934 0 0
5:35 am 05:35 Clear 32 0 19 -7.5 57 57 SSW 7 11 29.91 1013 10 16.0934 0 0
5:55 am 05:55 Clear 31 -0.8 18 -7.7 60 60 SSW 6 9 29.91 1013 10 16.0934 0 0
6:15 am 06:15 Clear 29 -1.4 17 -8.3 60 60 SW 7 11 29.91 1013 10 16.0934 0 0
6:35 am 06:35 Clear 29 -1.8 16 -8.7 60 60 WSW 5 7 29.91 1013 10 16.0934 0 0
6:55 am 06:55 Clear 26 -3.5 16 -9 66 66 WNW 8 13 29.94 1014 10 16.0934 0 0
7:15 am 07:15 Sunny 25 -3.8 16 -8.7 69 69 WNW 6 9 29.94 1014 10 16.0934 0 0
7:35 am 07:35 Sunny 25 -3.9 16 -8.7 70 70 NW 3 6 29.94 1014 10 16.0934 0 0
7:55 am 07:55 Sunny 24 -4.2 17 -8.3 73 73 Calm 29.97 1015 10 16.0934 0 0
8:15 am 08:15 Sunny 29 -1.9 19 -7 68 68 NW 3 6 29.91 1013 10 16.0934 0 0
8:35 am 08:35 Sunny 30 -1.2 21 -6.1 70 70 NW 5 7 29.94 1014 10 16.0934 0 0
8:55 am 08:55 Sunny 32 0 23 -5.1 69 69 NW 5 7 29.94 1014 10 16.0934 0 0
9:15 am 09:15 Sunny 34 0.9 24 -4.6 67 67 NNW 8 13 29.91 1013 10 16.0934 0 0
9:35 am 09:35 Sunny 36 2.2 25 -4 64 64 N 7 11 29.91 1013 10 16.0934 0 0
9:55 am 09:55 Sunny 38 3.6 25 -4 58 58 N 5 7 29.91 1013 10 16.0934 0 0
10:15 am 10:15 Sunny 41 4.8 24 -4.3 52 52 NNE 6 9 29.88 1012 10 16.0934 0 0
10:35 am 10:35 Sunny 42 5.8 24 -4.6 48 48 Calm 29.88 1012 10 16.0934 0 0
10:55 am 10:55 Sunny 44 6.5 24 -4.5 46 46 ENE 3 6 29.88 1012 10 16.0934 0 0
11:15 am 11:15 Sunny 46 7.5 24 -4.5 43 43 Calm 29.88 1012 10 16.0934 0 0
11:35 am 11:35 Sunny 46 7.8 24 -4.7 41 41 ENE 3 6 29.83 1010 10 16.0934 0 0
11:55 am 11:55 Sunny 47 8.6 24 -4.7 39 39 Calm 29.83 1010 10 16.0934 0 0
12:15 pm 12:15 Sunny 49 9.5 23 -4.8 36 36 Calm 29.83 1010 10 16.0934 0 0
12:35 pm 12:35 Sunny 51 10.4 24 -4.7 35 35 Calm 29.83 1010 10 16.0934 0 0
12:55 pm 12:55 Sunny 52 11.3 23 -4.8 32 32 Calm 29.8 1009 10 16.0934 0 0
1:15 pm 13:15 Sunny 54 12.1 23 -4.9 30 30 NW 3 6 29.77 1008 10 16.0934 0 0
1:35 pm 13:35 Sunny 55 12.5 24 -4.7 30 30 Calm 29.77 1008 10 16.0934 0 0
1:55 pm 13:55 Sunny 56 13.2 23 -4.9 28 28 NNW 3 6 29.77 1008 10 16.0934 0 0
2:15 pm 14:15 Sunny 56 13.6 23 -4.9 28 28 NNW 3 6 29.77 1008 10 16.0934 0 0
2:35 pm 14:35 Sunny 57 13.9 23 -5.1 27 27 Calm 29.74 1007 10 16.0934 0 0
2:55 pm 14:55 Sunny 58 14.2 24 -4.6 27 27 N 5 7 29.74 1007 10 16.0934 0 0
3:15 pm 15:15 Sunny 58 14.3 23 -4.8 26 26 NNW 5 7 29.74 1007 10 16.0934 0 0
3:35 pm 15:35 Sunny 58 14.5 24 -4.6 27 27 NW 8 13 29.74 1007 10 16.0934 0 0
3:55 pm 15:55 Sunny 57 14.1 25 -3.8 29 29 N 9 15 29.74 1007 10 16.0934 0 0
4:15 pm 16:15 Sunny 57 14 25 -3.9 29 29 N 8 13 29.74 1007 10 16.0934 0 0
4:35 pm 16:35 Sunny 57 13.8 25 -3.8 30 30 N 10 17 29.77 1008 10 16.0934 0 0
4:55 pm 16:55 Sunny 56 13.3 27 -2.7 33 33 NNE 10 17 29.77 1008 10 16.0934 0 0
5:15 pm 17:15 Sunny 55 12.7 28 -2.4 35 35 N 8 13 29.77 1008 10 16.0934 0 0
5:35 pm 17:35 Sunny 53 11.5 28 -2.3 38 38 N 9 15 29.77 1008 10 16.0934 0 0
5:55 pm 17:55 Sunny 50 9.8 27 -2.8 41 41 N 8 13 29.8 1009 10 16.0934 0 0
6:15 pm 18:15 Sunny 46 7.7 26 -3.3 46 46 N 6 9 29.8 1009 10 16.0934 0 0
6:35 pm 18:35 Clear 40 4.2 25 -3.8 56 56 N 9 15 29.83 1010 10 16.0934 0 0
6:55 pm 18:55 Clear 36 2.3 24 -4.6 61 61 N 9 15 29.85 1011 10 16.0934 0 0
7:15 pm 19:15 Clear 36 2.4 27 -2.6 70 70 N 12 19 29.85 1011 10 16.0934 0 0
7:35 pm 19:35 Clear 39 3.8 29 -1.9 67 67 N 10 17 29.85 1011 7 11.26538 0 0
7:55 pm 19:55 Clear 34 1 27 -2.9 75 75 N 9 15 29.85 1011 10 16.0934 0 0
8:15 pm 20:15 Clear 33 0.4 28 -2.3 82 82 N 10 17 29.88 1012 10 16.0934 0 0
8:35 pm 20:35 Clear 34 1.1 29 -1.6 82 82 N 9 15 29.85 1011 10 16.0934 0 0
8:55 pm 20:55 Clear 33 0.4 28 -2 84 84 NNE 13 20 29.88 1012 10 16.0934 0 0
9:15 pm 21:15 Clear 33 0.6 29 -1.5 86 86 NE 9 15 29.88 1012 10 16.0934 0 0
9:35 pm 21:35 Clear 31 -0.8 27 -2.9 86 86 E 6 9 29.91 1013 10 16.0934 0 0
9:55 pm 21:55 Clear 29 -1.4 26 -3.2 88 88 NE 9 15 29.91 1013 10 16.0934 0 0
10:15 pm 22:15 Clear 29 -1.5 27 -2.7 92 92 ENE 6 9 29.91 1013 10 16.0934 0 0
10:35 pm 22:35 Clear 28 -2.4 26 -3.5 92 92 NE 6 9 29.94 1014 10 16.0934 0 0
10:55 pm 22:55 Clear 27 -2.7 26 -3.6 94 94 NNE 9 15 29.91 1013 10 16.0934 0 0
11:15 pm 23:15 Clear 28 -2 27 -2.8 94 94 NNE 9 15 29.88 1012 10 16.0934 0 0
11:35 pm 23:35 Clear 29 -1.4 28 -2.5 92 92 NNE 3 6 29.91 1013 10 16.0934 0 0
11:55 pm 23:55 Clear 26 -3.2 25 -3.9 95 95 NNE 6 9 29.94 1014 10 16.0934 0 0

Powered by AerisWeather